Regional Weather Roundup
Issued by NWS

Home | Current Version | Previous Version | Text Only | Print | Product List | Glossary Off
Versions: 1 2 3 4 5 6 7 8 9 10 11 12 13 14 15 16 17 18 19 20 21 22 23 24 25 26 27 28 29 30 31 32 33 34 35 36 37 38 39 40 41 42 43 44 45 46 47 48 49 50

741
ASUS43 KDTX 261701
RWRMI
MICHIGAN HOURLY REGIONAL WEATHER ROUNDUP
NATIONAL WEATHER SERVICE DETROIT/PONTIAC MI
100 PM EDT WED JUL 26 2017

NOTE: "FAIR" INDICATES FEW OR NO CLOUDS BELOW 12,000 FEET WITH NO
SIGNIFICANT WEATHER AND/OR OBSTRUCTION TO VISIBILITY.

MIZ047>049-052>055-059>063-066>070-074>076-081>083-261800-
SOUTHEAST LOWER MICHIGAN

CITY           SKY/WX    TMP DP  RH WIND       PRES   REMARKS
ADRIAN         CLOUDY    76  62  62 SW8       30.13F
ALMA           PTSUNNY   76  62  60 S14G20    30.08F
ANN ARBOR      MOSUNNY   76  64  66 SE13      30.12F
BAD AXE        CLOUDY    73  61  65 SW13      30.08F
CARO           CLOUDY    75  62  64 SW13      30.07F
DETROIT CITY   PTSUNNY   76  61  59 SW9       30.12F
DETROIT        PTSUNNY   76  62  62 S13       30.13F
FLINT          CLOUDY    76  62  62 S14       30.09F
GROSSE ILE     CLOUDY    75  62  64 S10       30.13S
HILLSDALE      CLOUDY    75  61  60 S8        30.12F
HOWELL         PTSUNNY   76  63  63 S9        30.10F

CITY           SKY/WX    TMP DP  RH WIND       PRES   REMARKS
JACKSON        MOSUNNY   78  60  53 S9G17     30.10F
LAMBERTVILLE   PTSUNNY   77  62  60 S7        30.13F
LANSING        MOSUNNY   78  61  55 S10       30.10F
LAPEER         FAIR      76  61  58 SW13G18   30.09F
MASON          MOSUNNY   77  63  63 SW6       30.10F
MONROE         MOSUNNY   76  62  61 S7        30.12F
MT. CLEMENS    CLOUDY    76  65  69 S14       30.09F
PONTIAC        CLOUDY    76  62  62 S12       30.10F
PORT HOPE        N/A     73  62  68 S8        30.04S
PORT HURON     CLOUDY    77  61  57 S10G17    30.11F
TRI CITIES     CLOUDY    76  65  68 SW16      30.08S
MIDLAND        FAIR      77  62  60 SW14      30.06F
TROY           CLOUDY    78  60  55 SW10      30.14F
SAGINAW HB     CLOUDY    73  63  68 S14       30.07S
$$
MIZ043>046-050>051-056>058-064>065-071>073-077>080-261800-
SOUTHWEST LOWER MICHIGAN

CITY           SKY/WX    TMP DP  RH WIND       PRES   REMARKS
BATTLE CREEK   PTSUNNY   77  63  61 SW13      30.12S
BENTON HARBOR  MOSUNNY   79  64  60 S6        30.07F
BIG RAPIDS     CLOUDY    73  62  69 W10       30.08R
COLDWATER      SUNNY     76  63  64 S7        30.11F
FREMONT        PTSUNNY   75  64  69 W8        30.08R
HOLLAND        CLOUDY    77  62  59 S8        30.07F
GRAND RAPIDS   CLOUDY    78  64  61 S14G24    30.07F
IONIA          FAIR      77  61  58 SW14      30.08F
KALAMAZOO      CLOUDY    79  61  53 S12       30.11S
LUDINGTON      RAIN      66  66 100 SW8       30.06F
MARSHALL       MOSUNNY   78  63  60 S7        30.11F
MOUNT PLEASANT CLOUDY    77  59  54 SW12      30.05F
MUSKEGON       CLOUDY    74  66  76 SW14      30.07S
SOUTH HAVEN    SUNNY     79  66  64 S5        30.07F
$$
MIZ016>042-261800-
NORTHERN LOWER MICHIGAN

CITY           SKY/WX    TMP DP  RH WIND       PRES   REMARKS
ALPENA         CLOUDY    71  64  78 SW9       30.01F
BEAVER ISLAND  LGT RAIN  67  65  94 SW15G23   29.98S
BELLAIRE       CLOUDY    72  64  78 SW7       30.02R
CADILLAC       CLOUDY    74  64  70 W8        30.07R
CHARLEVOIX     HVY RAIN  69  66  91 SW13G22   30.03R
FRANKFORT      RAIN      69  68  98 SE3       30.03F
GAYLORD        CLOUDY    70  62  76 SW17G24   30.03S
GRAYLING       CLOUDY    70  62  75 SW6       30.05S
HARBOR SPRINGS RAIN      68  66  95 SW7       29.99S
HOUGHTON LAKE  CLOUDY    73  62  68 SW12      30.06F
MANISTEE       CLOUDY    67  66  97 CALM      30.03F
OSCODA         CLOUDY    72  62  69 SW10G21   30.04S
PELLSTON       RAIN      68  65  90 SW15G21   29.98S FOG
ROGERS CITY    CLOUDY    69  64  83 SW9       29.99F
TRAVERSE CITY  TSTM      72  65  78 W15G25    30.03R
$$
MIZ007>008-015-261800-
EASTERN UPPER MICHIGAN

CITY           SKY/WX    TMP DP  RH WIND       PRES   REMARKS
KINROSS        LGT RAIN  66  65  96 SW8       29.95S
MACKINAC ISLAN RAIN      66  66 100 SW14G23   29.95F
NEWBERRY       CLOUDY    66  65  97 SW9       29.94S
S. S. MARIE    CLOUDY    68  65  90 SW6       29.93F
MUNISING         N/A     71  65  81 NW5       29.93S
$$
MIZ004>006-011>014-085-261800-
CENTRAL UPPER MICHIGAN

CITY           SKY/WX    TMP DP  RH WIND       PRES   REMARKS
MANISTIQUE     RAIN      67  64  89 SW7       29.95F
ESCANABA       LGT RAIN  69  69 100 SE8       29.90F FOG
MENOMINEE      LGT RAIN  70  68  93 W3        29.97F
SAWYER-GWINN   CLOUDY    72  68  88 SW7       29.94F
$$
MIZ001>003-009>011-084-261800-
WESTERN UPPER MICHIGAN

CITY           SKY/WX    TMP DP  RH WIND       PRES   REMARKS
IRON MOUNTAIN  CLOUDY    72  67  84 SW8       29.95R
HOUGHTON       SUNNY     76  59  55 NW15      29.93F
COPPER HARBOR    N/A     73  57  57 N18       29.90S
IRONWOOD       SUNNY     75  62  64 NW9       29.99S
$$

ABBREVIATIONS USED IN REMARKS
   TC - TEMPERATURE IN CELSIUS
  WCI - WIND CHILL INDEX
   HX - HEAT INDEX
  VSB - VISIBILITY





USA.gov is the U.S. government's official web portal to all federal, state and local government web resources and services.